LOT4KK EVRA-EPWA

Flight info

Callsign LOT4KK
Flight time 0h 58m
Altitude 34000
Route BERIL DCT IRZUK DCT BOKSU M857 GERVI P851 NEPOX
Aircraft B738/M-SDE2E3FGHIRWXY/LB1

Departure

Time 2026-05-01 10:54
Airport Riga International Airport (EVRA)

Arrival

Time 2026-05-01 11:53
Airport Warsaw Chopin Airport (EPWA)
Time Latitude Longitude Altitude Speed Heading
2026-05-01 10:35 56.92288 23.97677 40 ft 0 kts 184°
2026-05-01 10:43 56.92297 23.97678 42 ft 2 kts 187°
2026-05-01 10:43 56.92313 23.97683 39 ft 2 kts 197°
2026-05-01 10:43 56.92328 23.97695 40 ft 2 kts 224°
2026-05-01 10:44 56.92336 23.97721 40 ft 2 kts 267°
2026-05-01 10:44 56.92336 23.97738 41 ft 1 kts 274°
2026-05-01 10:49 56.92337 23.97702 41 ft 12 kts 275°
2026-05-01 10:49 56.92315 23.97513 42 ft 16 kts 216°
2026-05-01 10:50 56.92194 23.97473 43 ft 20 kts 186°
2026-05-01 10:50 56.92038 23.97447 43 ft 25 kts 185°
2026-05-01 10:50 56.91870 23.97426 43 ft 23 kts 184°
2026-05-01 10:50 56.91713 23.97405 43 ft 22 kts 185°
2026-05-01 10:51 56.91559 23.97377 44 ft 22 kts 186°
2026-05-01 10:51 56.91409 23.97348 42 ft 21 kts 186°
2026-05-01 10:51 56.91265 23.97326 44 ft 21 kts 184°
2026-05-01 10:51 56.91125 23.97309 44 ft 20 kts 184°
2026-05-01 10:52 56.90988 23.97292 43 ft 19 kts 184°
2026-05-01 10:52 56.90857 23.97276 45 ft 19 kts 184°
2026-05-01 10:52 56.90733 23.97223 43 ft 18 kts 212°
2026-05-01 10:52 56.90653 23.97057 45 ft 17 kts 251°
2026-05-01 10:53 56.90666 23.96848 44 ft 13 kts 313°
2026-05-01 10:53 56.90718 23.96839 43 ft 3 kts
2026-05-01 10:53 56.90719 23.96839 43 ft 0 kts
2026-05-01 10:53 56.90720 23.96840 43 ft 2 kts
2026-05-01 10:54 56.90991 23.96886 43 ft 77 kts
2026-05-01 10:54 56.91750 23.97012 39 ft 141 kts
2026-05-01 10:54 56.92803 23.97192 588 ft 152 kts
2026-05-01 10:54 56.93850 23.97398 1396 ft 155 kts
2026-05-01 10:55 56.94959 23.97678 2270 ft 163 kts
2026-05-01 10:55 56.96071 23.97807 3146 ft 158 kts
2026-05-01 10:55 56.97137 23.97914 3976 ft 160 kts
2026-05-01 10:55 56.98350 23.98029 4288 ft 187 kts
2026-05-01 10:56 56.99731 23.98249 4488 ft 210 kts
2026-05-01 10:56 57.01255 23.98525 4682 ft 235 kts
2026-05-01 10:56 57.02941 23.98810 5237 ft 247 kts
2026-05-01 10:56 57.04613 23.99058 5765 ft 241 kts 356°
2026-05-01 10:57 57.06240 23.98244 6233 ft 247 kts 332°
2026-05-01 10:57 57.07542 23.96212 6286 ft 251 kts 309°
2026-05-01 10:57 57.08429 23.93385 6277 ft 256 kts 299°
2026-05-01 10:57 57.09182 23.90404 6279 ft 256 kts 298°
2026-05-01 10:58 57.09919 23.87444 6274 ft 257 kts 298°
2026-05-01 10:58 57.10675 23.84452 6277 ft 257 kts 297°
2026-05-01 10:58 57.11111 23.81289 6271 ft 263 kts 275°
2026-05-01 10:58 57.10840 23.77935 6282 ft 268 kts 258°
2026-05-01 10:59 57.10315 23.74623 6275 ft 268 kts 258°
2026-05-01 10:59 57.09797 23.71365 6273 ft 268 kts 258°
2026-05-01 10:59 57.09277 23.68050 6343 ft 272 kts 258°
2026-05-01 10:59 57.08389 23.64900 7022 ft 283 kts 233°
2026-05-01 11:00 57.06913 23.62437 7826 ft 290 kts 222°
2026-05-01 11:00 57.05321 23.60159 8537 ft 296 kts 221°
2026-05-01 11:00 57.03668 23.57799 9278 ft 303 kts 222°
2026-05-01 11:00 57.01989 23.55367 10055 ft 309 kts 222°
2026-05-01 11:01 57.00292 23.52889 10648 ft 321 kts 222°
2026-05-01 11:01 56.98470 23.50221 10850 ft 348 kts 221°
2026-05-01 11:01 56.96505 23.47429 11079 ft 370 kts 220°
2026-05-01 11:01 56.94417 23.44510 11619 ft 381 kts 220°
2026-05-01 11:02 56.92313 23.41586 12332 ft 386 kts 220°
2026-05-01 11:02 56.90153 23.38581 13094 ft 391 kts 220°
2026-05-01 11:02 56.87984 23.35561 13840 ft 397 kts 220°
2026-05-01 11:02 56.85761 23.32460 14528 ft 403 kts 220°
2026-05-01 11:03 56.83510 23.29323 15176 ft 410 kts 220°
2026-05-01 11:03 56.81248 23.26176 15928 ft 414 kts 220°
2026-05-01 11:03 56.78748 23.23442 16623 ft 424 kts 202°
2026-05-01 11:03 56.75877 23.22267 17309 ft 428 kts 181°
2026-05-01 11:04 56.72909 23.22462 18055 ft 430 kts 173°
2026-05-01 11:04 56.69881 23.22890 18691 ft 437 kts 172°
2026-05-01 11:04 56.66813 23.23339 19255 ft 443 kts 173°
2026-05-01 11:04 56.63753 23.23750 19826 ft 448 kts 173°
2026-05-01 11:05 56.60608 23.24128 20442 ft 453 kts 173°
2026-05-01 11:05 56.57482 23.24481 21015 ft 458 kts 173°
2026-05-01 11:05 56.54271 23.24877 21573 ft 462 kts 169°
2026-05-01 11:05 56.51184 23.26338 22079 ft 455 kts 149°
2026-05-01 11:06 56.48483 23.29100 22707 ft 450 kts 140°
2026-05-01 11:06 56.45822 23.32155 23286 ft 453 kts 140°
2026-05-01 11:06 56.43114 23.35217 23798 ft 459 kts 141°
2026-05-01 11:07 56.37456 23.40738 24681 ft 481 kts 157°
2026-05-01 11:07 56.34089 23.41718 25149 ft 496 kts 176°
2026-05-01 11:07 56.30623 23.40985 25607 ft 503 kts 189°
2026-05-01 11:07 56.27206 23.39747 25983 ft 508 kts 190°
2026-05-01 11:08 56.23719 23.38404 26364 ft 513 kts 191°
2026-05-01 11:08 56.20248 23.37067 26756 ft 516 kts 190°
2026-05-01 11:08 56.13147 23.34439 27526 ft 523 kts 189°
2026-05-01 11:09 56.09596 23.33176 27911 ft 526 kts 189°
2026-05-01 11:09 56.05982 23.31913 28279 ft 529 kts 189°
2026-05-01 11:09 56.02345 23.30652 28623 ft 533 kts 188°
2026-05-01 11:10 55.95021 23.28121 29367 ft 538 kts 188°
2026-05-01 11:10 55.91380 23.26862 29918 ft 536 kts 188°
2026-05-01 11:10 55.87709 23.25592 30425 ft 536 kts 188°
2026-05-01 11:10 55.84044 23.24326 30791 ft 536 kts 188°
2026-05-01 11:11 55.80380 23.23063 31207 ft 535 kts 188°
2026-05-01 11:11 55.76727 23.21806 31672 ft 534 kts 188°
2026-05-01 11:11 55.73078 23.20552 32111 ft 533 kts 188°
2026-05-01 11:11 55.69428 23.19302 32511 ft 532 kts 188°
2026-05-01 11:12 55.65826 23.18070 32947 ft 531 kts 188°
2026-05-01 11:12 55.62191 23.16830 33402 ft 529 kts 188°
2026-05-01 11:12 55.58573 23.15597 33828 ft 528 kts 187°
2026-05-01 11:12 55.55005 23.14384 34204 ft 528 kts 187°
2026-05-01 11:13 55.51388 23.13157 34328 ft 531 kts 187°
2026-05-01 11:13 55.47743 23.11925 34308 ft 535 kts 187°
2026-05-01 11:13 55.40436 23.09455 34280 ft 532 kts 187°
2026-05-01 11:14 55.33189 23.07013 34302 ft 528 kts 187°
2026-05-01 11:14 55.26016 23.04608 34303 ft 525 kts 187°
2026-05-01 11:15 55.18809 23.03531 34330 ft 515 kts 174°
2026-05-01 11:15 55.11630 23.03830 34303 ft 515 kts 173°
2026-05-01 11:16 55.04492 23.04136 34316 ft 516 kts 173°
2026-05-01 11:16 54.97304 23.04346 34306 ft 516 kts 174°
2026-05-01 11:17 54.90145 23.04511 34313 ft 517 kts 174°
2026-05-01 11:17 54.82931 23.04674 34307 ft 517 kts 174°
2026-05-01 11:18 54.75768 23.04842 34318 ft 516 kts 174°
2026-05-01 11:18 54.68618 23.05011 34307 ft 516 kts 174°
2026-05-01 11:19 54.62594 23.05154 34319 ft 515 kts 174°
2026-05-01 11:19 54.55478 23.05322 34317 ft 514 kts 174°
2026-05-01 11:20 54.48326 23.05490 34318 ft 512 kts 174°
2026-05-01 11:20 54.41193 23.05657 34320 ft 511 kts 174°
2026-05-01 11:21 54.34116 23.05770 34315 ft 512 kts 178°
2026-05-01 11:21 54.27056 23.03648 34317 ft 518 kts 198°
2026-05-01 11:22 54.20392 22.99078 34314 ft 518 kts 201°
2026-05-01 11:22 54.13714 22.94449 34309 ft 517 kts 200°
2026-05-01 11:23 54.07017 22.90062 34083 ft 507 kts 198°
2026-05-01 11:23 54.03681 22.88526 34192 ft 500 kts 191°
2026-05-01 11:23 54.00286 22.87266 34263 ft 499 kts 190°
2026-05-01 11:24 53.93463 22.84824 34312 ft 502 kts 191°
2026-05-01 11:25 53.83185 22.80974 34322 ft 506 kts 191°
2026-05-01 11:25 53.72873 22.77087 34312 ft 509 kts 191°
2026-05-01 11:26 53.62491 22.73208 34316 ft 509 kts 191°
2026-05-01 11:27 53.55570 22.70631 34311 ft 509 kts 191°
2026-05-01 11:27 53.48662 22.68066 34309 ft 508 kts 191°
2026-05-01 11:28 53.41799 22.65526 34317 ft 507 kts 191°
2026-05-01 11:28 53.34895 22.62980 34308 ft 506 kts 191°
2026-05-01 11:29 53.24588 22.59193 34078 ft 508 kts 191°
2026-05-01 11:29 53.17709 22.56667 32727 ft 507 kts 190°
2026-05-01 11:30 53.14257 22.55400 31981 ft 507 kts 190°
2026-05-01 11:30 53.10811 22.54138 31215 ft 507 kts 189°
2026-05-01 11:30 53.07363 22.52877 30526 ft 507 kts 189°
2026-05-01 11:30 53.03933 22.51623 29922 ft 502 kts 189°
2026-05-01 11:31 53.00538 22.50385 29316 ft 496 kts 189°
2026-05-01 11:31 52.97180 22.49162 28748 ft 490 kts 189°
2026-05-01 11:31 52.93859 22.47956 28176 ft 485 kts 189°
2026-05-01 11:31 52.90568 22.46762 27602 ft 481 kts 189°
2026-05-01 11:32 52.87355 22.45600 27052 ft 476 kts 189°
2026-05-01 11:32 52.84120 22.44431 26501 ft 472 kts 189°
2026-05-01 11:32 52.80924 22.43277 25953 ft 469 kts 189°
2026-05-01 11:32 52.77741 22.42130 25409 ft 465 kts 189°
2026-05-01 11:33 52.74580 22.40993 24866 ft 462 kts 189°
2026-05-01 11:33 52.71457 22.39874 24296 ft 460 kts 189°
2026-05-01 11:33 52.68360 22.38766 23715 ft 458 kts 189°
2026-05-01 11:33 52.65239 22.37650 23094 ft 455 kts 189°
2026-05-01 11:34 52.62148 22.36546 22526 ft 451 kts 189°
2026-05-01 11:34 52.59093 22.35456 21965 ft 447 kts 189°
2026-05-01 11:34 52.56067 22.34378 21419 ft 443 kts 189°
2026-05-01 11:34 52.53059 22.33308 20896 ft 440 kts 189°
2026-05-01 11:35 52.50112 22.32261 20360 ft 437 kts 189°
2026-05-01 11:35 52.47151 22.31211 19830 ft 433 kts 189°
2026-05-01 11:35 52.44205 22.30168 19295 ft 431 kts 189°
2026-05-01 11:35 52.41275 22.29132 18764 ft 429 kts 189°
2026-05-01 11:36 52.38373 22.28110 18237 ft 425 kts 189°
2026-05-01 11:36 52.35488 22.27095 17654 ft 422 kts 189°
2026-05-01 11:36 52.32659 22.26102 17122 ft 419 kts 189°
2026-05-01 11:36 52.29810 22.25102 16597 ft 415 kts 190°
2026-05-01 11:37 52.26996 22.24116 16083 ft 412 kts 190°
2026-05-01 11:37 52.24204 22.23139 15586 ft 409 kts 190°
2026-05-01 11:37 52.21447 22.22060 15070 ft 407 kts 198°
2026-05-01 11:37 52.18980 22.19822 14561 ft 405 kts 221°
2026-05-01 11:38 52.17140 22.16443 14081 ft 396 kts 242°
2026-05-01 11:38 52.16027 22.12410 13554 ft 385 kts 258°
2026-05-01 11:38 52.15652 22.08226 13063 ft 372 kts 275°
2026-05-01 11:38 52.15728 22.04054 12644 ft 363 kts 278°
2026-05-01 11:39 52.15850 22.00022 12489 ft 349 kts 280°
2026-05-01 11:39 52.16144 21.96138 12090 ft 341 kts 285°
2026-05-01 11:39 52.16556 21.92355 11679 ft 337 kts 286°
2026-05-01 11:39 52.16970 21.88609 11349 ft 333 kts 285°
2026-05-01 11:40 52.17351 21.84922 11315 ft 332 kts 285°
2026-05-01 11:40 52.17708 21.81266 11285 ft 320 kts 285°
2026-05-01 11:40 52.18041 21.77760 11254 ft 306 kts 285°
2026-05-01 11:40 52.18359 21.74382 11153 ft 296 kts 285°
2026-05-01 11:41 52.18671 21.71083 10913 ft 292 kts 285°
2026-05-01 11:41 52.18982 21.67815 10616 ft 291 kts 285°
2026-05-01 11:41 52.19290 21.64564 10316 ft 290 kts 284°
2026-05-01 11:41 52.19593 21.61321 10021 ft 288 kts 284°
2026-05-01 11:42 52.19890 21.58143 9713 ft 286 kts 284°
2026-05-01 11:42 52.20173 21.54943 9400 ft 286 kts 281°
2026-05-01 11:42 52.20244 21.51690 9113 ft 287 kts 275°
2026-05-01 11:42 52.20218 21.48444 8827 ft 286 kts 274°
2026-05-01 11:43 52.20186 21.45209 8545 ft 284 kts 274°
2026-05-01 11:43 52.20170 21.41993 8265 ft 282 kts 275°
2026-05-01 11:43 52.20165 21.38797 7974 ft 281 kts 275°
2026-05-01 11:44 52.20165 21.32555 7272 ft 274 kts 274°
2026-05-01 11:44 52.19849 21.29463 6734 ft 282 kts 250°
2026-05-01 11:44 52.19030 21.26575 6307 ft 279 kts 248°
2026-05-01 11:44 52.18220 21.23723 5900 ft 273 kts 248°
2026-05-01 11:45 52.17433 21.20937 5488 ft 270 kts 248°
2026-05-01 11:45 52.16615 21.18237 5101 ft 268 kts 237°
2026-05-01 11:45 52.15236 21.16223 4689 ft 268 kts 208°
2026-05-01 11:45 52.13441 21.15508 4226 ft 268 kts 178°
2026-05-01 11:46 52.11638 21.16191 3782 ft 267 kts 154°
2026-05-01 11:46 52.10029 21.17597 3589 ft 257 kts 148°
2026-05-01 11:46 52.08523 21.18972 3468 ft 245 kts 150°
2026-05-01 11:46 52.07048 21.20269 3329 ft 235 kts 150°
2026-05-01 11:47 52.05644 21.21502 3163 ft 225 kts 151°
2026-05-01 11:47 52.04281 21.22689 3067 ft 220 kts 152°
2026-05-01 11:47 52.02825 21.23175 3001 ft 214 kts 192°
2026-05-01 11:47 52.01564 21.22041 3009 ft 206 kts 233°
2026-05-01 11:48 52.00975 21.19953 3047 ft 209 kts 262°
2026-05-01 11:48 52.00747 21.17618 3041 ft 215 kts 264°
2026-05-01 11:48 52.00535 21.15188 2950 ft 218 kts 265°
2026-05-01 11:48 52.00356 21.12800 2945 ft 206 kts 268°
2026-05-01 11:49 52.00618 21.10650 3029 ft 195 kts 307°
2026-05-01 11:49 52.01689 21.09390 3009 ft 187 kts 345°
2026-05-01 11:49 52.02925 21.08687 3038 ft 191 kts 336°
2026-05-01 11:49 52.04060 21.07707 2930 ft 179 kts 332°
2026-05-01 11:50 52.05133 21.06751 2716 ft 170 kts 333°
2026-05-01 11:50 52.06178 21.05786 2510 ft 175 kts 330°
2026-05-01 11:50 52.07273 21.04961 2309 ft 164 kts 338°
2026-05-01 11:50 52.08194 21.04029 2183 ft 145 kts 330°
2026-05-01 11:51 52.09133 21.03246 1851 ft 150 kts 336°
2026-05-01 11:51 52.10036 21.02457 1605 ft 145 kts 334°
2026-05-01 11:51 52.10891 21.01695 1468 ft 140 kts 334°
2026-05-01 11:51 52.11755 21.00932 1238 ft 136 kts 334°
2026-05-01 11:52 52.12571 21.00221 1071 ft 131 kts 334°
2026-05-01 11:52 52.13383 20.99506 884 ft 134 kts 334°
2026-05-01 11:52 52.14218 20.98789 670 ft 140 kts 335°
2026-05-01 11:52 52.15091 20.98013 484 ft 142 kts 333°
2026-05-01 11:53 52.15939 20.97269 356 ft 130 kts 333°
2026-05-01 11:53 52.16655 20.96654 336 ft 97 kts 332°
2026-05-01 11:53 52.17103 20.96282 334 ft 41 kts 346°
2026-05-01 11:53 52.17344 20.96249 335 ft 31 kts
2026-05-01 11:54 52.17451 20.96444 337 ft 23 kts 60°
2026-05-01 11:54 52.17425 20.96612 338 ft 13 kts 153°
2026-05-01 11:54 52.17347 20.96674 333 ft 12 kts 153°
2026-05-01 11:54 52.17271 20.96739 336 ft 12 kts 150°
2026-05-01 11:55 52.17198 20.96804 338 ft 12 kts 151°
2026-05-01 11:55 52.17114 20.96878 338 ft 19 kts 151°
2026-05-01 11:55 52.16987 20.96991 336 ft 22 kts 151°
2026-05-01 11:55 52.16855 20.97104 338 ft 21 kts 152°
2026-05-01 11:56 52.16806 20.97151 335 ft 2 kts 137°
2026-05-01 11:56 52.16803 20.97203 336 ft 8 kts 80°
2026-05-01 11:56 52.16815 20.97297 338 ft 9 kts 78°
2026-05-01 11:56 52.16817 20.97311 338 ft 0 kts 78°